Location: Poprad
(49.0500°N, 20.3000°E)
Time: 21:24:27
(UTC+02:00)

PCSat - Pass Details

Date: 27 April 2024
Orbit: 783 x 792 km, 67.1° (Epoch: 24 May)

Event Time Altitude Azimuth Distance (km) Brightness Sun altitude
Rises 22:00:47 0° 292° (WNW) 3,289 13.9 -18.0°
Reaches altitude 10° 22:04:44 10° 320° (NW) 2,363 13.3 -18.4°
Maximum altitude 22:07:07 13° 347° (NNW) 2,172 12.8 -18.7°
Drops below altitude 10° 22:09:30 10° 13° (NNE) 2,367 12.5 -18.9°
Sets 22:13:28 0° 42° (NE) 3,299 12.9 -19.3°
